TIME,�g��[���C[MJ/h],����[MJ/h],�Ɩ�[MJ/h],�~�[[MJ/h],�①��[MJ/h],��y���[MJ/h],�Ǝ��q��[MJ/h],���̑�[MJ/h],�����G�l���M�[[MJ/h]
2003/11/1 0:00,8.4709,0,0,0.2087,0.1349,0.365,0.0252,0.9078,0
2003/11/1 0:15,7.0487,0,0,0.2301,0.3959,0.4033,0.0376,1.0585,0
2003/11/1 0:30,1.1222,0,0,0.2271,0.0655,0.4038,0.087,1.0251,0
2003/11/1 0:45,1.302,0,0,0.2287,0.3707,0.416,0.0377,1.1189,0
2003/11/1 1:00,0,0,0,0.2334,0.1992,0.4206,0.0386,0.9577,0
2003/11/1 1:15,5.3322,0,0,0.2078,0.1968,0.4607,0.0387,0.8414,0
2003/11/1 1:30,8.5213,0,0,0.1603,0.3048,0.1809,0.085,0.5175,0
2003/11/1 1:45,1.4249,0,0,0.158,0.0572,0.0884,0.0289,0.3135,0
2003/11/1 2:00,0,0,0,0.1672,0.3165,0.0888,0.0274,0.3479,0
2003/11/1 2:15,0,0,0,0.1899,0.2985,0.0888,0.0275,0.3144,0
2003/11/1 2:30,0,0,0,0.1993,0.037,0.0888,0.0766,0.3273,0
2003/11/1 2:45,0.8227,0,0,0.2036,0.323,0.0888,0.0279,0.3097,0
2003/11/1 3:00,8.3051,0,0,0.1974,0.2988,0.089,0.0275,0.2472,0
2003/11/1 3:15,5.3512,0,0,0.2072,0.2994,0.089,0.077,0.3025,0
2003/11/1 3:30,0,0,0,0.2009,0.3053,0.0893,0.0276,0.3239,0
2003/11/1 3:45,0,0,0,0.2033,0.5805,0.0891,0.0279,0.3116,0
2003/11/1 4:00,0.2981,0,0,0.2066,0.5003,0.089,0.0278,0.3154,0
2003/11/1 4:15,1.4914,0,0,0.2036,0.5252,0.0887,0.0783,0.3005,0
2003/11/1 4:30,0.107,0,0,0.2064,0.4611,0.0884,0.0276,0.3116,0
2003/11/1 4:45,0.3941,0,0,0.203,0.4437,0.0886,0.0281,0.3099,0
2003/11/1 5:00,10.1079,0,0,0.3385,0.3341,0.088,0.0278,0.3527,0
2003/11/1 5:15,1.8998,0,0,0.409,0.0315,0.0881,0.0791,0.2144,0
2003/11/1 5:30,0.7351,0,0,0.2481,0.3925,0.0881,0.0282,0.2598,0
2003/11/1 5:45,1.1737,0,0,0.1709,0.3686,0.0881,0.0282,0.3171,0
2003/11/1 6:00,0,0,0,0.2187,0.0577,0.0883,0.0281,0.3758,0
2003/11/1 6:15,0,0,0,0.2321,0.2516,0.0887,0.0887,0.3133,0
2003/11/1 6:30,0,0,0,0.2373,0.3846,0.0886,0.0408,0.3048,0
2003/11/1 6:45,0.122,0,0,0.2271,0.1444,0.0887,0.0395,0.3017,0
2003/11/1 7:00,11.1155,0,0,0.2434,0.1434,0.0883,0.0919,0.2719,0
2003/11/1 7:15,3.0614,0,0,0.2353,0.3951,0.0887,0.0393,0.2906,0
2003/11/1 7:30,0,0,0,0.2382,0.1405,0.0887,0.0395,0.309,0
2003/11/1 7:45,0,0,0,0.2304,0.198,0.0888,0.0396,0.3119,0
2003/11/1 8:00,0,0,0,0.2431,0.3421,0.0886,0.087,0.3051,0
2003/11/1 8:15,0,0,0,0.2445,0.0415,0.0887,0.0396,0.309,0
2003/11/1 8:30,0,0,0,0.2327,0.4023,0.0888,0.0395,0.2798,0
2003/11/1 8:45,0,0,0,0.233,0.0966,0.0884,0.0396,0.2953,0
2003/11/1 9:00,0,0,0,0.2428,0.2524,0.0888,0.0903,0.3041,0
2003/11/1 9:15,0,0,0,0.2372,0.2233,0.0887,0.0357,0.5459,0
2003/11/1 9:30,0,0,0,0.2357,0.1356,0.0516,0.0397,0.7494,0
2003/11/1 9:45,0,0,0,2.4584,0.3053,0.0429,0.04,1.0892,0
2003/11/1 10:00,0,0,0,2.7864,0.0798,0.0425,0.0914,1.2456,0
2003/11/1 10:15,0,0,0,1.8262,0.3692,0.0428,0.0403,1.1004,0
2003/11/1 10:30,0,0,0,0.1371,0.2125,0.0426,0.039,1.0797,0
2003/11/1 10:45,0,0,0,0.1385,0.1734,0.0426,0.0605,1.5111,0
2003/11/1 11:00,0,0,0,1.2332,0.3074,0.0423,0.0642,2.3862,0
2003/11/1 11:15,0,0,0,0.1299,0.149,0.0426,0.0405,1.0668,0
2003/11/1 11:30,0,0,0,0.1356,0.2151,0.0425,0.0406,1.1543,0
2003/11/1 11:45,0,0,0,0.1381,0.3911,0.0425,0.0899,1.1026,0
2003/11/1 12:00,0,0,0,0.1331,0.0346,0.0517,0.0541,1.4952,0
2003/11/1 12:15,0,0,0,0.1372,0.3964,0.0867,0.0409,0.775,0
2003/11/1 12:30,0,0,0,0.1367,0.1469,0.0868,0.0753,0.7547,0
2003/11/1 12:45,0,0,0,0.1377,0.2549,0.3146,0.041,0.7393,0
2003/11/1 13:00,0,0,0,0.1339,0.3005,0.4424,0.0851,0.7417,0
2003/11/1 13:15,0,0,0,0.1354,0.1051,0.4231,0.0408,0.915,0
2003/11/1 13:30,0,0,0,0.1385,0.3108,0.4166,0.0405,0.8407,0
2003/11/1 13:45,0,0,0,2.237,0.2069,0.4382,0.0408,0.9994,0
2003/11/1 14:00,0,0,0,1.8458,0.1309,0.2808,0.0906,0.97,0
2003/11/1 14:15,0,0,0,0.3322,0.4033,0.1031,0.0403,1.078,0
2003/11/1 14:30,0,0,0,0.1404,0.2575,0.0884,0.0402,1.0866,0
2003/11/1 14:45,0,0,0,0.1306,0.0726,0.0883,0.0897,1.0809,0
2003/11/1 15:00,0,0,0,0.1381,0.3159,0.0881,0.0361,1.1402,0
2003/11/1 15:15,0,0,0,0.1323,0.2398,0.0881,0.0402,1.5018,0
2003/11/1 15:30,0,0,0,0.1331,0.1208,0.0884,0.0406,1.2011,0
2003/11/1 15:45,0,0,0,0.1372,0.3132,0.088,0.0852,1.2374,0
2003/11/1 16:00,0,0,0,0.1296,0.2192,0.0881,0.04,1.0076,0
2003/11/1 16:15,0,0,0,0.1332,0.1135,0.0881,0.0395,0.7514,0
2003/11/1 16:30,0,0,0,0.1341,0.4008,0.0888,0.0874,0.956,0
2003/11/1 16:45,0,0,0,0.1371,0.1388,0.089,0.0403,0.9563,0
2003/11/1 17:00,0,0,0,0.1361,0.2334,0.0886,0.0406,0.664,0
2003/11/1 17:15,0,0,0,0.13,0.303,0.0888,0.0847,0.6751,0
2003/11/1 17:30,0,0,0,0.1326,0.1027,0.0884,0.0406,0.6728,0
2003/11/1 17:45,0,0,0,0.1356,0.2314,0.0886,0.0408,0.7835,0
2003/11/1 18:00,0,0,0,0.1326,0.3103,0.0884,0.0891,1.373,0
2003/11/1 18:15,0,0,0,0.1398,0.1156,0.0883,0.0406,1.1955,0
2003/11/1 18:30,0,0,0,0.1289,0.3158,0.0884,0.0408,1.4312,0
2003/11/1 18:45,0,0,0,0.7125,0.2805,0.1007,0.0405,1.6839,0
2003/11/1 19:00,0,0,0,0.486,0.174,0.4236,0.0884,1.671,0
2003/11/1 19:15,0,0,0,3.6032,0.3773,0.415,0.04,1.3429,0
2003/11/1 19:30,0,0,0,2.0768,0.0724,0.4103,0.0397,1.4521,0
2003/11/1 19:45,0,0,0,0.452,0.4104,0.3894,0.0396,1.4165,0
2003/11/1 20:00,0,0,0,0.4018,0.2248,0.2704,0.0913,1.2426,0
2003/11/1 20:15,0,0,0,0.1594,0.2317,0.0425,0.0393,1.2848,0
2003/11/1 20:30,0,0,0,0.1552,0.3901,0.0425,0.0389,1.2407,0
2003/11/1 20:45,0,0,0,0.1764,0.0534,0.0426,0.039,1.2286,0
2003/11/1 21:00,0,0,0,0.1935,0.3226,0.1813,0.2665,1.5453,0
2003/11/1 21:15,0,0,0,0.2053,0.2065,0.484,0.0732,1.4688,0
2003/11/1 21:30,0,0,0,0.1977,0.1552,0.4941,0.108,1.1984,0
2003/11/1 21:45,0,0,0,0.2013,0.3133,0.5036,0.0743,1.1402,0
2003/11/1 22:00,0,0,0,0.199,0.1938,0.481,0.2233,2.1047,0
2003/11/1 22:15,7.3776,0,0,0.21,0.212,0.4676,0.9048,1.1265,0
2003/11/1 22:30,11.6499,0,0,0.2029,0.3928,0.4683,0.7717,1.3789,0
2003/11/1 22:45,11.3715,0,0,0.8584,0.0562,0.3987,0.6561,1.1694,0
2003/11/1 23:00,11.317,0,0,1.7627,0.4085,0.4095,0.3146,1.0735,0
2003/11/1 23:15,11.4392,0,0,0.088,0.2172,0.4094,0.0756,1.1033,0
2003/11/1 23:30,10.5568,0,0,1.1428,0.2356,0.4049,0.0282,1.1228,0
2003/11/1 23:45,1.479,0,0,1.1549,0.394,0.4365,0.0282,1.1,0
2003/11/2 0:00,0.033,0,0,0.7822,0.0753,0.4401,0.0662,1.1546,0
2003/11/2 0:15,9.1126,0,0,0.2012,0.3875,0.4431,0.0359,1.2339,0
2003/11/2 0:30,8.1266,0,0,0.1984,0.2359,0.4484,0.041,1.1261,0
2003/11/2 0:45,0.9209,0,0,0.2023,0.1788,0.397,0.0932,0.8047,0
2003/11/2 1:00,0,0,0,0.2064,0.3109,0.0429,0.0397,0.3695,0
2003/11/2 1:15,0,0,0,0.2043,0.1732,0.0429,0.0396,0.364,0
2003/11/2 1:30,10.9073,0,0,0.2033,0.1917,0.0429,0.0399,0.3511,0
2003/11/2 1:45,4.649,0,0,0.3115,0.3112,0.0432,0.0796,0.6235,0
2003/11/2 2:00,0,0,0,0.4081,0.1683,0.0433,0.0282,1.1809,0
2003/11/2 2:15,0,0,0,0.1675,0.1954,0.0431,0.0284,0.2922,0
2003/11/2 2:30,0,0,0,0.2159,0.3097,0.0433,0.0285,0.2533,0
2003/11/2 2:45,0.4692,0,0,0.2337,0.2953,0.0433,0.0759,0.2612,0
2003/11/2 3:00,11.794,0,0,0.2356,0.2598,0.0432,0.0288,0.2262,0
2003/11/2 3:15,2.2199,0,0,0.235,0.4873,0.0435,0.0285,0.3182,0
2003/11/2 3:30,0,0,0,0.2339,0.5717,0.0429,0.0778,0.2599,0
2003/11/2 3:45,0,0,0,0.2356,0.4704,0.0429,0.0288,0.2485,0
2003/11/2 4:00,0,0,0,0.2402,0.5027,0.0433,0.0288,0.2624,0
2003/11/2 4:15,0.2939,0,0,0.2341,0.4372,0.0432,0.0288,0.2503,0
2003/11/2 4:30,1.9633,0,0,0.2357,0.4684,0.0431,0.0802,0.3129,0
2003/11/2 4:45,10.2614,0,0,0.2366,0.3028,0.0429,0.0287,0.2602,0
2003/11/2 5:00,1.7581,0,0,0.237,0.103,0.0429,0.0292,0.3025,0
2003/11/2 5:15,0,0,0,0.2353,0.3956,0.0432,0.0291,0.2568,0
2003/11/2 5:30,0,0,0,0.2428,0.2282,0.0432,0.072,0.2598,0
2003/11/2 5:45,0,0,0,0.2297,0.2082,0.0429,0.0294,0.246,0
2003/11/2 6:00,1.2089,0,0,0.2432,0.3794,0.0431,0.0291,0.2205,0
2003/11/2 6:15,0.6113,0,0,0.2347,0.2213,0.0429,0.0912,0.2546,0
2003/11/2 6:30,7.47,0,0,0.238,0.087,0.0423,0.0416,0.2321,0
2003/11/2 6:45,5.094,0,0,0.2386,0.3979,0.0426,0.0408,0.3083,0
2003/11/2 7:00,0,0,0,0.2372,0.2189,0.0518,0.0876,0.2605,0
2003/11/2 7:15,0,0,0,0.2418,0.1342,0.0508,0.0406,0.2232,0
2003/11/2 7:30,0.3732,0,0,0.2353,0.3784,0.0432,0.0408,0.2271,0
2003/11/2 7:45,1.4597,0,0,0.2035,0.0533,0.0435,0.0408,0.2458,0
2003/11/2 8:00,0,0,0,0.164,0.3979,0.0436,0.0858,0.2815,0
2003/11/2 8:15,0,0,0,0.1666,0.0847,0.0432,0.0356,0.3074,0
2003/11/2 8:30,0,0,0,0.1889,0.3609,0.0426,0.041,0.6898,0
2003/11/2 8:45,0,0,0,0.1961,0.1391,0.0428,0.0909,2.4715,0
2003/11/2 9:00,0,0,0,0.7438,0.3187,0.3164,0.041,0.9366,0
2003/11/2 9:15,0,0,0,0.2012,0.3115,0.4022,0.0416,0.7161,0
2003/11/2 9:30,0,0,0,0.7551,0.141,0.4008,0.0413,0.7397,0
2003/11/2 9:45,0,0,0,0.1987,0.3871,0.3858,0.0924,0.716,0
2003/11/2 10:00,0,0,0,0.7216,0.0605,0.3233,0.0418,0.7308,0
2003/11/2 10:15,0,0,0,0.193,0.4103,0.1721,0.0418,0.7055,0
2003/11/2 10:30,0,0,0,0.2006,0.1653,0.1829,0.0406,0.7151,0
2003/11/2 10:45,0,0,0,0.1912,0.2363,0.1807,0.1047,0.7341,0
2003/11/2 11:00,0,0,0,0.1943,0.3105,0.0444,0.0785,0.2782,0
2003/11/2 11:15,0,0,0,0.1953,0.1289,0.0435,0.0464,0.2393,0
2003/11/2 11:30,0,0,0,0.196,0.3031,0.0435,0.0461,0.2448,0
2003/11/2 11:45,0,0,0,0.1922,0.365,0.0438,0.0919,0.2468,0
2003/11/2 12:00,0,0,0,0.1968,0.085,0.0521,0.0458,0.2559,0
2003/11/2 12:15,0,0,0,0.1977,0.4009,0.0426,0.0449,0.2503,0
2003/11/2 12:30,0,0,0,0.192,0.1032,0.042,0.0824,0.2356,0
2003/11/2 12:45,0,0,0,0.1927,0.2821,0.042,0.0446,0.2416,0
2003/11/2 13:00,0,0,0,0.1915,0.2991,0.0423,0.0446,0.2534,0
2003/11/2 13:15,0,0,0,0.1898,0.0792,0.0423,0.0937,0.2683,0
2003/11/2 13:30,0,0,0,0.194,0.2899,0.0431,0.0392,0.3815,0
2003/11/2 13:45,0,0,0,0.2971,0.3054,0.0429,0.0393,0.2959,0
2003/11/2 14:00,0,0,0,0.3874,0.0818,0.0432,0.0393,0.2717,0
2003/11/2 14:15,0,0,0,0.1542,0.3675,0.0429,0.0864,0.3969,0
2003/11/2 14:30,0,0,0,0.2064,0.2357,0.0432,0.0386,0.5299,0
2003/11/2 14:45,0,0,0,0.2187,0.1814,0.0429,0.038,0.3583,0
2003/11/2 15:00,0,0,0,0.2213,0.3044,0.0431,0.038,0.4252,0
2003/11/2 15:15,0,0,0,0.2213,0.0657,0.0431,0.086,0.3829,0
2003/11/2 15:30,0,0,0,0.2206,0.3106,0.0431,0.0373,0.4552,0
2003/11/2 15:45,0,0,0,0.2209,0.3054,0.0431,0.0369,0.5484,0
2003/11/2 16:00,0,0,0,0.2203,0.0556,0.0428,0.0369,0.47,0
2003/11/2 16:15,0,0,0,0.2223,0.4074,0.0429,0.0845,0.361,0
2003/11/2 16:30,0,0,0,0.2264,0.2418,0.0425,0.0369,0.3688,0
2003/11/2 16:45,0,0,0,0.218,0.213,0.0426,0.0367,0.3584,0
2003/11/2 17:00,0,0,0,0.2213,0.3516,0.0423,0.0366,0.3786,0
2003/11/2 17:15,0,0,0,0.2254,0.1005,0.0422,0.0804,0.4844,0
2003/11/2 17:30,0,0,0,0.2229,0.3992,0.042,0.0361,0.6375,0
2003/11/2 17:45,0,0,0,0.2252,0.366,0.042,0.0359,0.4743,0
2003/11/2 18:00,0,0,0,0.2267,0.3915,0.0425,0.0829,0.4218,0
2003/11/2 18:15,0,0,0,0.2275,0.0315,0.3976,0.0344,1.0611,0
2003/11/2 18:30,0,0,0,0.2303,0.33,0.4304,0.0364,1.0819,0
2003/11/2 18:45,0,0,0,0.2275,0.3718,0.4352,0.0363,1.104,0
2003/11/2 19:00,0,0,0,2.2539,0.0752,0.4281,0.0871,1.1907,0
2003/11/2 19:15,0,0,0,2.41,0.4579,0.0514,0.0364,1.3604,0
2003/11/2 19:30,0,0,0,0.1273,0.2215,0.0431,0.0359,1.5349,0
2003/11/2 19:45,0,0,0,0.1286,0.2853,0.0432,0.0314,1.2043,0
2003/11/2 20:00,0,0,0,0.1323,0.3141,0.2589,0.0351,1.0816,0
2003/11/2 20:15,0,0,0,0.1293,0.1879,0.4072,0.0837,1.1376,0
2003/11/2 20:30,0,0,0,0.1313,0.4391,0.408,0.0372,1.3635,0
2003/11/2 20:45,0,0,0,0.1316,0.073,0.411,0.0373,1.6829,0
2003/11/2 21:00,0,0,0,0.1348,0.3951,0.396,0.0373,1.6332,0
2003/11/2 21:15,0,0,0,0.1318,0.2035,0.0432,0.0904,1.4478,0
2003/11/2 21:30,0,0,0,0.1319,0.282,0.2475,0.0363,1.4361,0
2003/11/2 21:45,0,0,0,0.1312,0.415,0.4064,0.0377,1.2276,0
2003/11/2 22:00,0,0,0,0.1336,0.0878,0.3963,0.0347,1.3116,0
2003/11/2 22:15,7.1594,0,0,0.129,0.4533,0.3918,0.0842,1.5034,0
2003/11/2 22:30,11.3743,0,0,0.1346,0.2373,0.3961,0.6124,1.2322,0
2003/11/2 22:45,11.3316,0,0,0.1308,0.2422,0.4127,0.8438,1.0637,0
2003/11/2 23:00,11.4843,0,0,0.1315,0.3885,0.3957,0.5613,1.2403,0
2003/11/2 23:15,4.1688,0,0,0.1316,0.0536,0.4048,0.8361,1.0459,0
2003/11/2 23:30,1.4734,0,0,0.1341,0.4074,0.4192,0.0249,1.2119,0
2003/11/2 23:45,0.7259,0,0,0.1341,0.2176,0.4077,0.0246,1.1861,0
2003/11/3 0:00,10.0632,0,0,0.1312,0.2336,0.411,0.0255,1.1912,0
2003/11/3 0:15,4.7614,0,0,0.1308,0.3577,0.4092,0.086,0.9014,0
2003/11/3 0:30,0.989,0,0,0.1335,0.0822,0.0576,0.0376,0.2955,0
2003/11/3 0:45,0,0,0,0.1305,0.3145,0.0428,0.0364,0.2789,0
2003/11/3 1:00,0,0,0,0.1316,0.2543,0.0429,0.0363,0.2873,0
2003/11/3 1:15,0.952,0,0,0.1378,0.1022,0.0428,0.0762,0.2114,0
2003/11/3 1:30,11.6846,0,0,0.1335,0.3125,0.0429,0.036,0.2693,0
2003/11/3 1:45,1.942,0,0,0.1313,0.255,0.0433,0.0269,0.2867,0
2003/11/3 2:00,0,0,0,0.1374,0.106,0.0429,0.0684,0.2904,0
2003/11/3 2:15,0,0,0,0.1345,0.3133,0.0432,0.0245,0.2919,0
2003/11/3 2:30,0,0,0,0.1296,0.2972,0.0432,0.0246,0.2974,0
2003/11/3 2:45,0.6363,0,0,0.1348,0.3018,0.0433,0.0245,0.2737,0
2003/11/3 3:00,1.219,0,0,0.1329,0.3591,0.0432,0.0703,0.2703,0
2003/11/3 3:15,0.5175,0,0,0.1351,0.5784,0.0432,0.0246,0.2938,0
2003/11/3 3:30,10.3183,0,0,0.1394,0.489,0.0431,0.0248,0.2781,0
2003/11/3 3:45,1.2597,0,0,0.1322,0.5208,0.0435,0.0248,0.3277,0
2003/11/3 4:00,0,0,0,0.1319,0.4592,0.0435,0.0763,0.3012,0
2003/11/3 4:15,0,0,0,0.1318,0.4527,0.0436,0.0251,0.2883,0
2003/11/3 4:30,1.278,0,0,0.1344,0.4437,0.0436,0.0248,0.274,0
2003/11/3 4:45,0.5069,0,0,0.1375,0.0307,0.0425,0.0248,0.2834,0
2003/11/3 5:00,0,0,0,0.1338,0.3784,0.0425,0.0734,0.2847,0
2003/11/3 5:15,0,0,0,0.1348,0.34,0.0432,0.0248,0.2938,0
2003/11/3 5:30,0.681,0,0,0.1359,0.0503,0.0429,0.0248,0.2848,0
2003/11/3 5:45,10.2064,0,0,0.1342,0.4036,0.0426,0.0252,0.2824,0
2003/11/3 6:00,1.2493,0,0,0.1351,0.192,0.0431,0.0701,0.3401,0
2003/11/3 6:15,1.2745,0,0,0.1348,0.2601,0.0435,0.0366,0.2733,0
2003/11/3 6:30,0.4972,0,0,0.1369,0.2817,0.0433,0.0373,0.2883,0
2003/11/3 6:45,0,0,0,0.1342,0.1408,0.0433,0.0361,0.2969,0
2003/11/3 7:00,0,0,0,0.1397,0.306,0.0523,0.0815,0.2857,0
2003/11/3 7:15,0,0,0,0.1302,0.0799,0.0518,0.0361,0.2892,0
2003/11/3 7:30,0,0,0,0.1368,0.2915,0.0436,0.0361,0.2688,0
2003/11/3 7:45,0,0,0,0.1342,0.2411,0.0431,0.0361,0.2772,0
2003/11/3 8:00,7.6717,0,0,0.1391,0.1211,0.0426,0.0776,0.4427,0
2003/11/3 8:15,0,0,0,0.138,0.3112,0.0785,0.036,0.9612,0
2003/11/3 8:30,0,0,0,0.5139,0.2164,0.4026,0.037,1.0584,0
2003/11/3 8:45,0,0,0,1.4207,0.1689,0.4432,0.0374,1.0623,0
2003/11/3 9:00,0,0,0,0.589,0.4051,0.433,0.084,1.0544,0
2003/11/3 9:15,0,0,0,0.1332,0.2657,0.3804,0.0372,1.1097,0
2003/11/3 9:30,0,0,0,0.9848,0.167,0.34,0.0373,2.5633,0
2003/11/3 9:45,0,0,0,0.1296,0.3927,0.0428,0.0793,1.722,0
2003/11/3 10:00,0,0,0,0.1331,0.0531,0.0429,0.0374,1.1065,0
2003/11/3 10:15,0,0,0,0.1344,0.4044,0.199,0.039,0.9687,0
2003/11/3 10:30,0,0,0,0.1362,0.1384,0.4522,0.0873,1.0404,0
2003/11/3 10:45,0,0,0,0.1332,0.2514,0.4307,0.0382,0.9743,0
2003/11/3 11:00,0,0,0,0.1319,0.2569,0.4032,0.0383,1.1578,0
2003/11/3 11:15,0,0,0,0.1352,0.1201,0.418,0.0766,1.1133,0
2003/11/3 11:30,0,0,0,0.1305,0.4123,0.4578,0.0377,0.9778,0
2003/11/3 11:45,0,0,0,0.1329,0.2955,0.2362,0.0379,1.0493,0
2003/11/3 12:00,0,0,0,0.1374,0.1125,0.0873,0.0821,0.6013,0
2003/11/3 12:15,0,0,0,0.1329,0.4033,0.0871,0.0377,0.607,0
2003/11/3 12:30,0,0,0,0.1355,0.2904,0.4586,0.0377,0.9837,0
2003/11/3 12:45,0,0,0,0.1336,0.0782,0.5031,0.0374,1.1565,0
2003/11/3 13:00,0,0,0,0.1332,0.3164,0.4954,0.0863,1.3897,0
2003/11/3 13:15,0,0,0,0.1328,0.2467,0.4991,0.0373,1.3487,0
2003/11/3 13:30,0,0,0,0.1408,0.1161,0.491,0.0372,1.3435,0
2003/11/3 13:45,0,0,0,0.1308,0.3125,0.0958,0.0377,0.9935,0
2003/11/3 14:00,0,0,0,0.1394,0.2258,0.0881,0.0864,0.9117,0
2003/11/3 14:15,0,0,0,0.1351,0.1302,0.0883,0.0382,0.9003,0
2003/11/3 14:30,0,0,0,0.1362,0.3126,0.0881,0.0382,0.959,0
2003/11/3 14:45,0,0,0,0.1356,0.2219,0.0881,0.038,0.9788,0
2003/11/3 15:00,0,0,0,0.1356,0.1342,0.0881,0.0831,0.9124,0
2003/11/3 15:15,0,0,0,0.1338,0.312,0.0883,0.0377,0.9171,0
2003/11/3 15:30,0,0,0,0.1372,0.215,0.088,0.0377,0.905,0
2003/11/3 15:45,0,0,0,0.1359,0.1395,0.088,0.086,0.8973,0
2003/11/3 16:00,0,0,0,0.1384,0.3095,0.2226,0.0376,1.0015,0
2003/11/3 16:15,0,0,0,0.4684,0.2147,0.4402,0.0389,1.5252,0
2003/11/3 16:30,0,0,0,1.5686,0.1725,0.4326,0.037,1.543,0
2003/11/3 16:45,0,0,0,0.1341,0.4059,0.4097,0.0798,1.426,0
2003/11/3 17:00,0,0,0,0.1312,0.1153,0.4296,0.0386,1.3988,0
2003/11/3 17:15,0,0,0,0.4987,0.3416,0.4317,0.0384,1.392,0
2003/11/3 17:30,0,0,0,0.9232,0.3715,0.4075,0.0383,1.4237,0
2003/11/3 17:45,0,0,0,0.1384,0.3897,0.4065,0.0884,1.2354,0
2003/11/3 18:00,0,0,0,0.1381,0.0547,0.3969,0.038,1.1107,0
2003/11/3 18:15,0,0,0,1.1845,0.2703,0.4553,0.0377,1.2885,0
2003/11/3 18:30,0,0,0,1.8524,0.3868,0.4627,0.0379,1.1248,0
2003/11/3 18:45,0,0,0,2.4517,0.0554,0.0927,0.0878,0.9924,0
2003/11/3 19:00,0,0,0,1.4286,0.4059,0.2252,0.0382,1.0323,0
2003/11/3 19:15,0,0,0,2.5563,0.1259,0.4501,0.0386,1.272,0
2003/11/3 19:30,0,0,0,1.2324,0.3311,0.4568,0.0789,1.0918,0
2003/11/3 19:45,0,0,0,0.4365,0.2896,0.0615,0.0386,0.9932,0
2003/11/3 20:00,0,0,0,0.1534,0.1627,0.0432,0.0386,0.9958,0
2003/11/3 20:15,0,0,0,0.1544,0.3918,0.0922,0.0384,1.0067,0
2003/11/3 20:30,0,0,0,0.1866,0.0585,0.3614,0.2265,1.3039,0
2003/11/3 20:45,0,0,0,0.193,0.321,0.3701,0.0379,1.5012,0
2003/11/3 21:00,0,0,0,0.2022,0.2949,0.1716,0.0377,1.4394,0
2003/11/3 21:15,0,0,0,0.2007,0.0347,0.0426,0.0392,1.4458,0
2003/11/3 21:30,0,0,0,0.1948,0.3748,0.0422,0.0812,1.5826,0
2003/11/3 21:45,0,0,0,0.2,0.3763,0.0429,0.0395,1.2983,0
2003/11/3 22:00,0,0,0,0.2012,0.0315,0.0468,0.0389,1.38,0
2003/11/3 22:15,7.3356,0,0,0.1977,0.3184,0.4116,0.0865,1.225,0
2003/11/3 22:30,11.5426,0,0,0.203,0.3787,0.4064,0.0383,1.3236,0
2003/11/3 22:45,11.3157,0,0,0.2003,0.0301,0.3757,0.0287,1.2506,0
2003/11/3 23:00,11.3838,0,0,0.2026,0.3758,0.3943,0.0266,1.1566,0
2003/11/3 23:15,11.3219,0,0,0.2075,0.2118,0.3946,0.072,1.0801,0
2003/11/3 23:30,3.3932,0,0,0.1966,0.2275,0.4019,0.0271,1.2839,0
2003/11/3 23:45,0.3688,0,0,0.1953,0.3659,0.4074,0.0276,1.2728,0
2003/11/4 0:00,4.0892,0,0,0.2019,0.0847,0.1367,0.0769,0.7472,0
2003/11/4 0:15,10.9287,0,0,0.2013,0.409,0.042,0.038,0.312,0
2003/11/4 0:30,2.5432,0,0,0.1927,0.2074,0.0426,0.0392,0.3224,0
2003/11/4 0:45,0,0,0,0.1963,0.1963,0.0431,0.038,0.3154,0
2003/11/4 1:00,0,0,0,0.198,0.3083,0.0431,0.0628,0.289,0
2003/11/4 1:15,1.1696,0,0,0.1917,0.1526,0.0433,0.0256,0.356,0
2003/11/4 1:30,11.7179,0,0,0.2308,0.1757,0.0429,0.0262,0.3015,0
2003/11/4 1:45,2.1197,0,0,0.4013,0.3119,0.0432,0.0657,0.1212,0
2003/11/4 2:00,0,0,0,0.3332,0.1755,0.0432,0.0266,0.1482,0
2003/11/4 2:15,0,0,0,0.1552,0.1813,0.0435,0.0265,0.2976,0
2003/11/4 2:30,0,0,0,0.2068,0.3103,0.0436,0.075,0.2758,0
2003/11/4 2:45,0.8731,0,0,0.2228,0.2953,0.0435,0.0264,0.2684,0
2003/11/4 3:00,5.5449,0,0,0.2213,0.2589,0.0432,0.0265,0.2166,0
2003/11/4 3:15,7.9811,0,0,0.2274,0.4681,0.042,0.0262,0.2389,0
2003/11/4 3:30,0,0,0,0.2294,0.573,0.0432,0.072,0.2749,0
2003/11/4 3:45,0,0,0,0.2261,0.4825,0.0431,0.0262,0.2683,0
2003/11/4 4:00,0,0,0,0.2265,0.5013,0.0433,0.0264,0.2742,0
2003/11/4 4:15,0.4929,0,0,0.2231,0.4419,0.0431,0.0719,0.2444,0
2003/11/4 4:30,1.3176,0,0,0.2267,0.4656,0.0432,0.0265,0.2471,0
2003/11/4 4:45,0,0,0,0.231,0.2805,0.0432,0.0265,0.2566,0
2003/11/4 5:00,4.5955,0,0,0.2264,0.0821,0.0431,0.0265,0.2831,0
2003/11/4 5:15,7.6291,0,0,0.2262,0.4013,0.0426,0.0729,0.3263,0
2003/11/4 5:30,0,0,0,0.231,0.211,0.0431,0.0264,0.2654,0
2003/11/4 5:45,0,0,0,0.228,0.2061,0.0426,0.0269,0.2543,0
2003/11/4 6:00,0.8535,0,0,0.2272,0.3652,0.0423,0.0429,0.3917,0
2003/11/4 6:15,0.9599,0,0,0.2317,0.0707,0.0429,0.0672,0.4834,0
2003/11/4 6:30,0,0,0,0.2231,0.3987,0.0432,0.0393,0.4591,0
2003/11/4 6:45,0,0,0,0.2285,0.09,0.2422,0.034,0.6758,0
2003/11/4 7:00,2.0772,0,0,3.0524,0.2959,0.4376,0.0871,1.2858,0
2003/11/4 7:15,10.1349,0,0,0.2429,0.302,0.4285,0.0376,1.1935,0
2003/11/4 7:30,0,0,0,0.2277,0.0775,0.4248,0.5348,1.2459,0
2003/11/4 7:45,1.0456,0,0,0.6268,0.3758,0.4375,0.5568,1.0187,0
2003/11/4 8:00,0.7417,0,0,0.1326,0.3832,0.4306,0.4769,1.3931,0
2003/11/4 8:15,0,0,0,0.1365,0.0796,0.4244,0.7138,1.1493,0
2003/11/4 8:30,0,0,0,0.1333,0.2519,0.3976,0.582,1.0583,0
2003/11/4 8:45,0,0,0,0.1384,0.3027,0.4177,0.1194,1.1095,0
2003/11/4 9:00,0,0,0,0.1312,0.0648,0.1028,0.0824,0.9596,0
2003/11/4 9:15,0,0,0,0.1338,0.3038,0.0425,0.039,0.5557,0
2003/11/4 9:30,0,0,0,0.1346,0.2991,0.2107,0.0384,0.5664,0
2003/11/4 9:45,0,0,0,0.1333,0.0667,0.4019,0.0901,0.4175,0
2003/11/4 10:00,0,0,0,0.1339,0.3855,0.4222,0.0387,0.434,0
2003/11/4 10:15,0,0,0,0.1348,0.2061,0.4768,0.0389,0.4512,0
2003/11/4 10:30,0,0,0,0.1358,0.2004,0.4967,0.0386,0.3011,0
2003/11/4 10:45,0,0,0,0.1336,0.291,0.4807,0.0827,0.2765,0
2003/11/4 11:00,0,0,0,0.1318,0.0733,0.3833,0.0382,0.2906,0
2003/11/4 11:15,0,0,0,0.1355,0.4081,0.0432,0.0392,0.2619,0
2003/11/4 11:30,0,0,0,0.1342,0.338,0.0433,0.0387,0.2645,0
2003/11/4 11:45,0,0,0,0.1339,0.0654,0.0433,0.0863,0.2595,0
2003/11/4 12:00,0,0,0,0.1331,0.4056,0.052,0.0384,0.2676,0
2003/11/4 12:15,0,0,0,0.1356,0.1529,0.0432,0.0383,0.2579,0
2003/11/4 12:30,0,0,0,0.1338,0.2434,0.0435,0.038,0.2591,0
2003/11/4 12:45,0,0,0,0.13,0.2668,0.0433,0.0857,0.2616,0
2003/11/4 13:00,0,0,0,0.1372,0.0927,0.0435,0.0377,0.2553,0
2003/11/4 13:15,0,0,0,0.1316,0.3159,0.0432,0.0373,0.2583,0
2003/11/4 13:30,0,0,0,0.131,0.1666,0.0431,0.0821,0.2519,0
2003/11/4 13:45,0,0,0,0.1333,0.2012,0.0432,0.0373,0.2496,0
2003/11/4 14:00,0,0,0,0.1319,0.3066,0.0431,0.037,0.2699,0
2003/11/4 14:15,0,0,0,0.1361,0.1459,0.0432,0.0369,0.2589,0
2003/11/4 14:30,0,0,0,0.1336,0.2174,0.0433,0.0842,0.2654,0
2003/11/4 14:45,0,0,0,0.1318,0.3079,0.0431,0.0369,0.2593,0
2003/11/4 15:00,0,0,0,0.1326,0.1398,0.0431,0.0367,0.253,0
2003/11/4 15:15,0,0,0,0.1335,0.2228,0.0431,0.0363,0.2601,0
2003/11/4 15:30,0,0,0,0.1335,0.3061,0.0429,0.0804,0.2596,0
2003/11/4 15:45,0,0,0,0.1328,0.1371,0.0429,0.0363,0.6644,0
2003/11/4 16:00,0,0,0,0.1344,0.2244,0.0425,0.0422,1.7767,0
2003/11/4 16:15,0,0,0,0.1374,0.3054,0.0428,0.0644,1.1913,0
2003/11/4 16:30,0,0,0,0.1332,0.049,0.0425,0.0697,0.9482,0
2003/11/4 16:45,0,0,0,0.1326,0.4094,0.0425,0.0425,1.0308,0
2003/11/4 17:00,0,0,0,0.1333,0.1544,0.0433,0.0425,1.0768,0
2003/11/4 17:15,0,0,0,0.132,0.2989,0.0426,0.0422,1.1447,0
2003/11/4 17:30,0,0,0,0.1348,0.3737,0.0423,0.0881,1.4276,0
2003/11/4 17:45,0,0,0,0.132,0.1355,0.0423,0.0423,0.9678,0
2003/11/4 18:00,0,0,0,0.1361,0.322,0.0422,0.042,0.9971,0
2003/11/4 18:15,0,0,0,0.1328,0.3907,0.2634,0.0916,1.0133,0
2003/11/4 18:30,0,0,0,0.1319,0.1276,0.4379,0.0422,0.959,0
2003/11/4 18:45,0,0,0,0.1394,0.2277,0.5046,0.0422,1.1324,0
2003/11/4 19:00,0,0,0,0.1336,0.3892,0.5,0.0422,0.9766,0
2003/11/4 19:15,0,0,0,4.2358,0.1247,0.4944,0.0904,1.0525,0
2003/11/4 19:30,0,0,0,0.8012,0.2362,0.4067,0.042,1.0545,0
2003/11/4 19:45,0,0,0,0.6998,0.3902,0.042,0.0423,1.497,0
2003/11/4 20:00,0,0,0,0.0991,0.1198,0.0425,0.0373,1.5019,0
2003/11/4 20:15,0,0,0,0.0147,0.2546,0.0428,0.0796,1.0241,0
2003/11/4 20:30,0,0,0,0.0145,0.392,0.0425,0.0343,1.6201,0
2003/11/4 20:45,0,0,0,0.0145,0.1158,0.0423,0.0379,1.6848,0
2003/11/4 21:00,0,0,0,0.0145,0.204,0.0425,0.0379,1.1205,0
2003/11/4 21:15,0,0,0,0.0145,0.3067,0.0428,0.0855,1.2689,0
2003/11/4 21:30,0,0,0,0.0145,0.0926,0.0425,0.0379,1.3706,0
2003/11/4 21:45,0,0,0,0.0144,0.2733,0.0422,0.0377,1.1267,0
2003/11/4 22:00,0,0,0,0.0144,0.3014,0.0422,0.0282,1.0198,0
2003/11/4 22:15,7.2033,0,0,0.0147,0.0893,0.0426,0.0736,1.1399,0
2003/11/4 22:30,11.514,0,0,1.5255,0.2769,0.0429,0.0243,1.443,0
2003/11/4 22:45,11.4152,0,0,1.6155,0.3099,0.0626,0.0374,1.2348,0
2003/11/4 23:00,11.4637,0,0,0.0302,0.1084,0.481,0.0395,1.0489,0
2003/11/4 23:15,6.7634,0,0,0.0661,0.3449,0.4264,0.0874,1.0191,0
2003/11/4 23:30,1.4642,0,0,0.1112,0.3992,0.3695,0.0289,1.0207,0
2003/11/4 23:45,0.0006,0,0,0.1286,0.0992,0.0435,0.0271,0.8883,0
2003/11/5 0:00,9.7521,0,0,0.1346,0.342,0.0426,0.0276,0.4257,0
2003/11/5 0:15,6.5632,0,0,0.1398,0.2785,0.0428,0.0747,0.326,0
2003/11/5 0:30,0.94,0,0,0.1326,0.1378,0.0432,0.0276,0.2658,0
2003/11/5 0:45,0,0,0,0.138,0.3096,0.0429,0.0274,0.2717,0
2003/11/5 1:00,0,0,0,0.1361,0.198,0.0431,0.0744,0.2854,0
2003/11/5 1:15,6.9384,0,0,0.1394,0.1596,0.0431,0.0275,0.2061,0
2003/11/5 1:30,8.0542,0,0,0.1378,0.31,0.0432,0.0276,0.2742,0
2003/11/5 1:45,0,0,0,0.1345,0.1964,0.0435,0.0278,0.2979,0
2003/11/5 2:00,0,0,0,0.1365,0.1626,0.0433,0.0726,0.2818,0
2003/11/5 2:15,0,0,0,0.1395,0.3097,0.0435,0.0276,0.2886,0